Glasgow, MT

1:22 AM MST on January 20, 2017 (GMT -0700)
Wokal-Glasgow International

Weather History for KGGW - January, 2012

Change the Weather History Date:

Thursday, January 5, 2012

  Actual Average Record
Temperature  
Mean Temperature 46 °F 13 °F  
Max Temperature 56 °F 23 °F 56 °F (2012)
Min Temperature 35 °F 4 °F -41 °F (1916)
Degree Days  
Heating Degree Days 19 52  
Month to date heating degree days 152 260  
Since 1 July heating degree days 3111 3762  
Cooling Degree Days 0 0  
Month to date cooling degree days 0 0  
Year to date cooling degree days 0 0  
Moisture  
Dew Point 24 °F    
Average Humidity 43    
Maximum Humidity 54    
Minimum Humidity 31    
Precipitation  
Precipitation 0.00 in 0.01 in 0.22 in (2010)
Month to date precipitation 0.00 0.07  
Year to date precipitation 0.00 0.07  
Snow  
Snow 0.00 in 0.30 in 6.70 in (2015)
Month to date snowfall 0.0 1.6  
Since 1 July snowfall 13.3 16.2  
Snow Depth 0.00 in    
Sea Level Pressure  
Sea Level Pressure 29.80 in    
Wind  
Wind Speed 14 mph (West)    
Max Wind Speed 40 mph    
Max Gust Speed 54 mph    
Visibility 10 miles    
Events      
T = Trace of Precipitation, MM = Missing Value Source: NWS Daily Summary

Daily Weather History Graph

Daily Weather History Graph

Search for Another Location

Airport or City:

Trip Planner

Search our weather history database for the weather conditions in past years. The results will help you decide how hot, cold, wet, or windy it might be!

Date:

Astronomy

Jan. 05, 2012 Rise Set
Actual Time 7:56 AM MST 4:26 PM MST
Civil Twilight 7:20 AM MST 5:03 PM MST
Nautical Twilight 6:41 AM MST 5:42 PM MST
Astronomical Twilight 6:03 AM MST 6:20 PM MST
Moon 1:31 PM MST (1/5) 4:44 AM MST (1/5)
Length of Visible Light 9h 42m
Length of Day
8h 30m
Waxing Gibbous, 88% of the Moon is Illuminated
Jan 5
Waxing Gibbous
Jan 9
Full
Jan 16
Last Quarter
Jan 23
New
Jan 30
First Quarter

Hourly Weather History & Observations

Time (MST) Temp. Windchill Dew Point Humidity Pressure Visibility Wind Dir Wind Speed Gust Speed Precip Events Conditions
12:53 AM 46.0 °F 41.9 °F 27.0 °F 47% 29.86 in 10.0 mi WNW 8.1 mph - N/A   Clear
1:53 AM 43.0 °F 38.8 °F 26.1 °F 51% 29.86 in 10.0 mi West 6.9 mph - N/A   Clear
2:53 AM 42.1 °F 38.4 °F 26.1 °F 53% 29.84 in 10.0 mi WNW 5.8 mph - N/A   Clear
3:53 AM 44.1 °F 40.1 °F 26.1 °F 49% 29.83 in 10.0 mi WSW 6.9 mph - N/A   Clear
4:53 AM 45.0 °F 39.7 °F 26.1 °F 48% 29.81 in 10.0 mi SW 10.4 mph - N/A   Clear
5:53 AM 45.0 °F 42.6 °F 24.1 °F 44% 29.80 in 10.0 mi WSW 4.6 mph - N/A   Clear
6:53 AM 46.9 °F - 23.0 °F 39% 29.77 in 10.0 mi SSW 9.2 mph - N/A   Clear
7:53 AM 46.4 °F 43.5 °F 23.0 °F 40% 29.71 in 10.0 mi SSW 5.8 mph - N/A   Clear
8:53 AM 52.0 °F - 23.0 °F 32% 29.73 in 10.0 mi WSW 12.7 mph 27.6 mph N/A   Clear
9:53 AM 53.6 °F - 24.8 °F 33% 29.71 in 10.0 mi WNW 10.4 mph - N/A   Clear
10:53 AM 55.0 °F - 26.1 °F 33% 29.75 in 10.0 mi WNW 15.0 mph - N/A   Clear
11:53 AM 54.0 °F - 27.0 °F 35% 29.74 in 10.0 mi WNW 28.8 mph 35.7 mph N/A   Clear
12:53 PM 55.9 °F - 27.0 °F 33% 29.73 in 10.0 mi WNW 28.8 mph 51.8 mph N/A   Mostly Cloudy
1:53 PM 48.9 °F - 27.0 °F 43% 29.76 in 10.0 mi NW 25.3 mph 36.8 mph N/A   Overcast
2:53 PM 48.9 °F - 21.9 °F 35% 29.78 in 10.0 mi WNW 19.6 mph - N/A   Overcast
3:53 PM 48.0 °F - 19.9 °F 33% 29.80 in 10.0 mi WNW 18.4 mph - N/A   Clear
4:53 PM 41.0 °F 35.2 °F 21.2 °F 45% 29.78 in 10.0 mi WNW 9.2 mph - N/A   Clear
5:53 PM 39.0 °F 32.3 °F 21.0 °F 49% 29.84 in 10.0 mi WNW 10.4 mph - N/A   Clear
6:53 PM 37.9 °F 30.9 °F 21.9 °F 53% 29.86 in 10.0 mi NW 10.4 mph - N/A   Partly Cloudy
7:53 PM 37.9 °F 29.6 °F 23.0 °F 55% 29.86 in 10.0 mi WNW 13.8 mph 19.6 mph N/A   Clear
8:53 PM 39.0 °F 29.3 °F 21.0 °F 49% 29.84 in 10.0 mi WNW 19.6 mph 28.8 mph N/A   Clear
9:53 PM 37.9 °F 28.2 °F 21.0 °F 51% 29.85 in 10.0 mi WNW 18.4 mph 26.5 mph N/A   Clear
10:53 PM 37.0 °F 26.7 °F 21.0 °F 52% 29.87 in 10.0 mi West 19.6 mph 27.6 mph N/A   Clear
11:53 PM 35.1 °F 25.5 °F 21.0 °F 57% 29.88 in 10.0 mi West 15.0 mph - N/A   Clear